Radiation Dose at Monitoring Post of Fukushima Daini Nuclear Power Station
Date,Time,MP-1(microSv/h),MP-2(microSv/h),MP-3(microSv/h),MP-4(microSv/h),MP-5(microSv/h),MP-6(microSv/h),MP-7(microSv/h),Wind Direction,Wind Velocity(m/s),Rain
2021/06/21,00:00,0.165,0.151,0.240,0.235,0.233,0.130,0.081,-,CALM,No
2021/06/21,00:10,0.165,0.152,0.241,0.234,0.233,0.130,0.082,north,1.1,No
2021/06/21,00:20,0.163,0.150,0.241,0.235,0.234,0.131,0.081,-,CALM,No
2021/06/21,00:30,0.164,0.152,0.242,0.234,0.232,0.131,0.081,north-northwest,2.5,No
2021/06/21,00:40,0.164,0.151,0.240,0.235,0.233,0.130,0.081,north-northwest,2.9,No
2021/06/21,00:50,0.165,0.151,0.241,0.233,0.233,0.131,0.081,north,2.8,No
2021/06/21,01:00,0.163,0.151,0.242,0.235,0.233,0.130,0.081,north,2.9,No
2021/06/21,01:10,0.165,0.150,0.240,0.234,0.232,0.131,0.081,north-northwest,2.9,No
2021/06/21,01:20,0.164,0.151,0.241,0.234,0.234,0.130,0.082,north-northwest,2.8,No
2021/06/21,01:30,0.165,0.151,0.239,0.234,0.232,0.131,0.080,north,2.2,No
2021/06/21,01:40,0.164,0.152,0.242,0.235,0.234,0.130,0.081,north,1.3,No
2021/06/21,01:50,0.165,0.153,0.241,0.234,0.232,0.130,0.080,north-northwest,2.0,No
2021/06/21,02:00,0.163,0.152,0.242,0.234,0.234,0.130,0.081,north-northwest,1.6,No
2021/06/21,02:10,0.165,0.152,0.242,0.235,0.233,0.131,0.081,north-northwest,2.1,No
2021/06/21,02:20,0.163,0.151,0.240,0.234,0.234,0.130,0.081,west,1.0,No
2021/06/21,02:30,0.165,0.152,0.242,0.234,0.232,0.131,0.081,west,0.7,No
2021/06/21,02:40,0.164,0.152,0.240,0.234,0.234,0.131,0.081,north-northeast,2.7,No
2021/06/21,02:50,0.164,0.152,0.240,0.234,0.232,0.130,0.082,north-northeast,1.9,No
2021/06/21,03:00,0.164,0.151,0.240,0.234,0.233,0.131,0.080,north,0.8,No
2021/06/21,03:10,0.165,0.151,0.241,0.233,0.233,0.130,0.081,-,CALM,No
2021/06/21,03:20,0.165,0.152,0.241,0.234,0.233,0.131,0.081,north,0.6,No
2021/06/21,03:30,0.165,0.151,0.242,0.233,0.231,0.130,0.081,north,0.8,No
2021/06/21,03:40,0.164,0.153,0.242,0.235,0.232,0.131,0.081,north-northwest,0.7,No
2021/06/21,03:50,0.163,0.151,0.241,0.233,0.232,0.131,0.081,-,CALM,No
2021/06/21,04:00,0.164,0.152,0.242,0.235,0.232,0.131,0.081,-,CALM,No
2021/06/21,04:10,0.164,0.153,0.241,0.233,0.232,0.131,0.081,south-southeast,0.7,No
2021/06/21,04:20,0.165,0.152,0.240,0.234,0.232,0.131,0.081,southwest,1.9,No
2021/06/21,04:30,0.164,0.152,0.241,0.234,0.233,0.131,0.081,-,CALM,No
2021/06/21,04:40,0.164,0.152,0.240,0.233,0.232,0.131,0.081,south,0.6,No
2021/06/21,04:50,0.164,0.152,0.241,0.235,0.233,0.131,0.080,south,0.9,No
2021/06/21,05:00,0.165,0.152,0.241,0.233,0.231,0.130,0.081,south-southeast,1.0,No
2021/06/21,05:10,0.165,0.151,0.240,0.235,0.234,0.131,0.081,south,0.9,No
2021/06/21,05:20,0.165,0.152,0.241,0.232,0.231,0.131,0.081,-,CALM,No
2021/06/21,05:30,0.165,0.151,0.242,0.234,0.233,0.130,0.082,south-southwest,1.1,No
2021/06/21,05:40,0.163,0.152,0.240,0.234,0.231,0.130,0.081,south-southwest,1.7,No
2021/06/21,05:50,0.164,0.150,0.240,0.234,0.235,0.130,0.081,south,1.6,No
2021/06/21,06:00,0.164,0.150,0.241,0.233,0.232,0.130,0.081,south-southwest,1.7,No
2021/06/21,06:10,0.165,0.152,0.242,0.233,0.230,0.130,0.080,south-southwest,1.7,No
2021/06/21,06:20,0.163,0.151,0.240,0.232,0.233,0.131,0.080,south,1.6,No
2021/06/21,06:30,0.164,0.150,0.241,0.233,0.231,0.131,0.081,south,2.0,No
2021/06/21,06:40,0.164,0.152,0.241,0.232,0.230,0.131,0.080,south-southeast,1.5,No
2021/06/21,06:50,0.164,0.152,0.241,0.234,0.234,0.130,0.079,south-southeast,1.4,No
2021/06/21,07:00,0.164,0.150,0.240,0.232,0.230,0.130,0.080,south-southeast,2.0,No
2021/06/21,07:10,0.163,0.151,0.238,0.231,0.231,0.130,0.081,south-southeast,1.8,No
2021/06/21,07:20,0.164,0.152,0.237,0.233,0.233,0.131,0.081,south,2.0,No
2021/06/21,07:30,0.162,0.151,0.240,0.231,0.231,0.130,0.080,south-southeast,2.6,No
2021/06/21,07:40,0.164,0.151,0.239,0.230,0.234,0.130,0.080,south-southeast,2.7,No
2021/06/21,07:50,0.164,0.150,0.238,0.235,0.234,0.131,0.079,south-southeast,2.0,No
2021/06/21,08:00,0.163,0.150,0.237,0.233,0.230,0.130,0.080,south-southeast,2.5,No
2021/06/21,08:10,0.164,0.151,0.238,0.233,0.229,0.129,0.080,south-southeast,2.8,No
2021/06/21,08:20,0.164,0.151,0.238,0.231,0.233,0.130,0.080,south-southeast,2.4,No
2021/06/21,08:30,0.162,0.151,0.237,0.230,0.233,0.131,0.081,southeast,2.4,No
2021/06/21,08:40,0.165,0.150,0.238,0.231,0.230,0.130,0.081,southeast,2.7,No
2021/06/21,08:50,0.165,0.150,0.238,0.229,0.230,0.130,0.081,southeast,2.2,No
2021/06/21,09:00,0.163,0.150,0.239,0.235,0.229,0.131,0.081,southeast,2.8,No
2021/06/21,09:10,0.162,0.150,0.240,0.234,0.232,0.131,0.080,southeast,2.7,No
2021/06/21,09:20,0.163,0.152,0.243,0.233,0.233,0.131,0.081,east-southeast,2.9,No
2021/06/21,09:30,0.164,0.153,0.243,0.233,0.233,0.131,0.080,southeast,2.6,No
2021/06/21,09:40,0.164,0.148,0.241,0.231,0.232,0.129,0.081,south,2.4,No
2021/06/21,09:50,0.164,0.148,0.240,0.231,0.231,0.130,0.081,south-southeast,2.7,No
2021/06/21,10:00,0.164,-,0.240,0.231,0.231,0.131,0.082,southeast,2.9,No
2021/06/21,10:10,0.161,-,0.239,0.232,0.230,0.130,0.080,southeast,3.0,No
2021/06/21,10:20,0.161,-,0.239,0.232,0.230,0.131,0.081,southeast,2.5,No
2021/06/21,10:30,0.163,-,0.239,0.231,0.231,0.130,0.080,south-southeast,2.5,No
2021/06/21,10:40,0.162,-,0.240,0.232,0.233,0.131,0.080,south-southeast,3.9,No
2021/06/21,10:50,0.164,-,0.242,0.234,0.235,0.131,0.080,south-southeast,3.8,No
2021/06/21,11:00,0.164,-,0.243,0.237,0.235,0.131,0.080,south-southeast,3.8,No
2021/06/21,11:10,0.165,-,0.241,0.236,0.233,0.131,0.080,south-southeast,4.0,No
2021/06/21,11:20,0.164,-,0.241,0.235,0.231,0.131,0.082,south-southeast,4.5,No
2021/06/21,11:30,0.162,-,0.240,0.233,0.231,0.131,0.081,south-southeast,5.0,No
2021/06/21,11:40,0.163,-,0.244,0.232,0.235,0.131,0.080,south-southeast,5.2,No
2021/06/21,11:50,0.163,-,0.244,0.235,0.235,0.132,0.079,south-southeast,4.5,No
2021/06/21,12:00,0.164,-,0.243,0.236,0.233,0.131,0.080,south-southeast,5.6,No
2021/06/21,12:10,0.165,-,0.242,0.235,0.232,0.130,0.080,south-southeast,5.0,No
2021/06/21,12:20,0.165,-,0.241,0.235,0.233,0.130,0.081,south-southeast,5.3,No
2021/06/21,12:30,0.163,-,0.241,0.234,0.231,0.131,0.081,south-southeast,5.6,No
2021/06/21,12:40,0.163,-,0.241,0.233,0.231,0.131,0.081,south-southeast,6.3,No
2021/06/21,12:50,0.163,-,0.243,0.233,0.232,0.132,0.081,south-southeast,6.1,No
2021/06/21,13:00,0.163,-,0.245,0.233,0.231,0.132,0.080,south-southeast,8.1,No
2021/06/21,13:10,0.163,-,0.243,0.238,0.232,0.131,0.081,south-southeast,7.2,No
2021/06/21,13:20,0.162,-,0.242,0.236,0.231,0.131,0.081,south-southeast,7.3,No
2021/06/21,13:30,0.164,-,0.242,0.236,0.234,0.131,0.081,south-southeast,7.7,No
2021/06/21,13:40,0.166,-,0.240,0.235,0.236,0.131,0.081,south-southeast,7.3,No
2021/06/21,13:50,0.165,-,0.243,0.234,0.235,0.131,0.080,south-southeast,8.4,No
2021/06/21,14:00,0.164,-,0.246,0.234,0.233,0.130,0.080,south-southeast,8.9,No
2021/06/21,14:10,0.164,-,0.245,0.237,0.232,0.131,0.079,south-southeast,8.1,No
2021/06/21,14:20,0.164,-,0.242,0.236,0.231,0.131,0.079,south-southeast,9.2,No
2021/06/21,14:30,0.163,-,0.241,0.236,0.230,0.131,0.081,south-southeast,9.8,No
2021/06/21,14:40,0.163,-,0.242,0.235,0.234,0.130,0.081,south-southeast,9.8,No
2021/06/21,14:50,0.164,-,0.245,0.237,0.236,0.131,0.080,south-southeast,9.5,No
2021/06/21,15:00,0.166,-,0.243,0.236,0.233,0.131,0.081,south-southeast,9.5,No
2021/06/21,15:10,0.165,-,0.242,0.236,0.232,0.131,0.081,south-southeast,8.1,No
2021/06/21,15:20,0.165,-,0.243,0.235,0.232,0.131,0.081,south-southeast,8.8,No
2021/06/21,15:30,0.163,0.151,0.246,0.239,0.236,0.131,0.081,south-southeast,9.0,No
2021/06/21,15:40,0.164,0.151,0.243,0.236,0.235,0.131,0.081,south,8.9,No
2021/06/21,15:50,0.166,0.152,0.243,0.234,0.232,0.131,0.081,south-southeast,9.2,No
2021/06/21,16:00,0.165,0.153,0.243,0.237,0.231,0.130,0.080,south-southeast,9.5,No
2021/06/21,16:10,0.164,0.152,0.247,0.236,0.233,0.131,0.081,south-southeast,9.8,No
2021/06/21,16:20,0.163,0.152,0.242,0.236,0.236,0.131,0.081,south-southeast,11.2,No
2021/06/21,16:30,0.165,0.154,0.245,0.238,0.235,0.131,0.081,south-southeast,11.5,No
2021/06/21,16:40,0.166,0.152,0.244,0.237,0.232,0.131,0.081,south-southeast,11.8,No
2021/06/21,16:50,0.165,0.153,0.243,0.237,0.231,0.131,0.081,south-southeast,10.1,No
2021/06/21,17:00,0.164,0.153,0.247,0.238,0.236,0.132,0.081,south-southeast,9.5,No
2021/06/21,17:10,0.164,0.153,0.244,0.237,0.236,0.130,0.081,south-southeast,8.7,No
2021/06/21,17:20,0.166,0.153,0.244,0.237,0.233,0.131,0.081,south-southeast,8.9,No
2021/06/21,17:30,0.165,0.151,0.245,0.238,0.231,0.131,0.081,south-southeast,9.0,No
2021/06/21,17:40,0.165,0.153,0.244,0.235,0.235,0.130,0.080,south-southeast,10.0,No
2021/06/21,17:50,0.166,0.153,0.245,0.238,0.235,0.132,0.082,south,10.7,No
2021/06/21,18:00,0.165,0.152,0.243,0.238,0.233,0.131,0.080,south,10.4,No
2021/06/21,18:10,0.166,0.154,0.245,0.236,0.235,0.132,0.081,south,9.3,No
2021/06/21,18:20,0.166,0.153,0.244,0.238,0.234,0.132,0.081,south,8.7,No
2021/06/21,18:30,0.164,0.154,0.244,0.237,0.236,0.131,0.081,south,8.6,No
2021/06/21,18:40,0.165,0.152,0.245,0.238,0.234,0.132,0.082,south,7.6,No
2021/06/21,18:50,0.165,0.153,0.243,0.237,0.234,0.132,0.081,south,7.8,No
2021/06/21,19:00,0.166,0.152,0.246,0.239,0.236,0.131,0.081,south,7.7,No
2021/06/21,19:10,0.165,0.152,0.244,0.236,0.233,0.132,0.081,south,7.9,No
2021/06/21,19:20,0.165,0.152,0.246,0.236,0.236,0.131,0.082,south,6.5,No
2021/06/21,19:30,0.166,0.152,0.244,0.238,0.233,0.131,0.081,south-southeast,5.7,No
2021/06/21,19:40,0.165,0.152,0.245,0.236,0.234,0.131,0.081,south-southeast,5.8,No
2021/06/21,19:50,0.166,0.153,0.245,0.240,0.234,0.132,0.081,south-southeast,5.7,No
2021/06/21,20:00,0.165,0.152,0.244,0.236,0.235,0.131,0.081,south-southeast,5.3,No
2021/06/21,20:10,0.166,0.153,0.245,0.240,0.236,0.131,0.081,south,5.7,No
2021/06/21,20:20,0.166,0.152,0.244,0.237,0.233,0.132,0.082,south-southeast,5.6,No
2021/06/21,20:30,0.165,0.152,0.245,0.239,0.236,0.131,0.082,south,5.5,No
2021/06/21,20:40,0.166,0.153,0.243,0.237,0.233,0.131,0.080,south-southeast,5.5,No
2021/06/21,20:50,0.164,0.152,0.245,0.237,0.235,0.131,0.081,south,6.1,No
2021/06/21,21:00,0.166,0.153,0.244,0.238,0.234,0.131,0.081,south,4.3,No
2021/06/21,21:10,0.165,0.151,0.246,0.237,0.233,0.132,0.081,south,4.1,No
2021/06/21,21:20,0.166,0.154,0.243,0.238,0.236,0.131,0.081,south,3.7,No
2021/06/21,21:30,0.165,0.153,0.245,0.237,0.233,0.132,0.081,south,2.9,No
2021/06/21,21:40,0.165,0.153,0.243,0.237,0.235,0.132,0.081,south-southwest,1.8,No
2021/06/21,21:50,0.166,0.152,0.245,0.236,0.234,0.132,0.081,south,1.9,No
2021/06/21,22:00,0.164,0.153,0.244,0.238,0.236,0.132,0.082,south,2.4,No
2021/06/21,22:10,0.166,0.153,0.246,0.237,0.234,0.131,0.081,south-southwest,3.2,No
2021/06/21,22:20,0.165,0.153,0.243,0.239,0.235,0.132,0.081,south,2.7,No
2021/06/21,22:30,0.165,0.152,0.246,0.238,0.233,0.132,0.081,south,2.5,No
2021/06/21,22:40,0.165,0.154,0.244,0.239,0.235,0.132,0.081,south,1.0,No
2021/06/21,22:50,0.166,0.153,0.246,0.237,0.234,0.131,0.082,south,1.4,No
2021/06/21,23:00,0.165,0.155,0.244,0.240,0.235,0.133,0.081,-,CALM,No
2021/06/21,23:10,0.168,0.153,0.245,0.238,0.236,0.133,0.082,-,CALM,No
2021/06/21,23:20,0.166,0.154,0.245,0.239,0.235,0.133,0.082,-,CALM,No
2021/06/21,23:30,0.167,0.154,0.246,0.237,0.237,0.133,0.082,-,CALM,No
2021/06/21,23:40,0.167,0.155,0.246,0.239,0.235,0.133,0.082,-,CALM,No
2021/06/21,23:50,0.167,0.155,0.247,0.238,0.237,0.133,0.083,-,CALM,No
